Wind_Speed
35 36 36 35 35 34 34 34 33 32 31 31 31 31 31 33 34 35 37 38 39 41 42 42 42 43 44 45 46 46 47 48 49 51 52 53 53 53 52 50 49 47 44 43 41 40 40 41 41 40 41 42 42 42 42 43 43 43 43 44 43 42 42 43 45 42 33 27 25 26 27 29 31 31 32 35 35 35 35 34 35 35 34 31 28
34 36 37 37 36 36 35 34 32 31 31 31 31 31 31 32 33 36 37 38 40 41 42 42 43 44 45 45 46 46 47 48 49 50 51 51 51 52 52 51 49 47 45 43 42 41 42 43 43 43 43 44 44 44 44 45 45 45 43 43 43 42 42 42 41 37 30 25 24 25 28 31 32 31 31 34 34 34 35 35 35 33 31 29 28
33 35 35 35 34 34 34 33 32 31 31 31 31 31 31 32 34 36 37 38 39 41 42 42 43 45 46 46 46 47 47 47 48 49 50 50 50 50 50 50 49 47 45 44 42 43 44 45 45 45 45 46 47 47 47 46 45 44 42 42 43 42 40 38 36 33 29 27 26 27 30 32 32 30 30 32 33 33 34 33 31 30 30 29 27
28 29 29 30 30 31 31 31 31 30 30 30 31 32 33 35 36 37 38 39 40 41 42 43 44 46 47 47 46 46 46 46 47 48 48 48 49 49 48 48 49 47 46 44 43 44 46 47 47 47 47 49 48 47 46 43 42 41 41 41 41 39 36 34 33 31 29 29 29 29 31 31 31 30 30 31 31 32 32 29 29 30 30 28 26
23 24 25 26 27 27 27 28 28 27 27 27 28 30 32 35 36 38 39 40 41 42 43 44 45 46 47 46 45 45 44 45 45 46 46 46 47 47 47 47 48 47 47 45 45 46 47 48 48 49 49 48 47 44 42 40 40 40 40 39 38 36 34 32 30 29 30 30 30 30 31 31 30 29 29 30 30 31 29 28 31 33 29 26 25
20 22 24 25 25 25 25 26 26 26 26 26 26 27 29 32 34 36 38 39 40 41 42 43 44 45 45 45 44 44 44 44 44 44 44 44 45 46 46 46 47 48 48 47 47 48 49 49 50 49 47 45 42 40 39 39 39 38 37 36 35 34 32 30 29 28 29 30 30 30 32 32 29 27 28 30 31 31 29 28 31 31 27 26 26
20 23 25 26 26 25 26 27 28 28 28 28 28 28 28 30 31 33 35 37 39 39 39 40 41 42 43 44 44 43 43 43 43 43 42 42 44 44 45 46 47 48 49 49 49 49 50 49 48 46 44 41 39 38 38 38 37 36 35 35 34 32 30 29 28 28 28 29 29 30 32 32 29 26 28 30 31 31 30 28 27 26 25 25 27
22 25 27 29 29 29 31 33 33 34 34 33 32 32 32 32 33 33 34 36 37 38 39 39 40 41 42 42 43 43 43 43 42 42 41 41 42 43 45 46 47 48 49 49 49 49 49 47 45 43 41 39 38 38 37 36 36 35 34 34 33 31 29 28 28 28 28 28 29 30 31 31 27 25 27 29 29 29 30 29 26 25 26 28 29
26 28 30 32 34 36 38 40 41 42 40 38 37 36 36 36 36 36 36 37 37 38 39 40 41 41 41 41 42 42 43 43 42 41 41 41 42 43 44 46 47 48 48 49 48 47 46 44 42 41 40 39 37 36 36 35 35 35 35 34 33 30 29 29 29 29 29 29 28 29 30 29 26 25 26 26 27 28 29 29 27 26 28 30 30
29 31 33 35 37 40 42 45 47 48 45 42 40 39 40 40 40 39 39 39 38 39 40 41 42 42 41 41 41 42 42 42 41 41 40 41 41 42 43 45 46 47 47 46 46 44 42 42 42 41 40 38 36 35 35 35 36 36 36 34 32 30 29 29 29 30 30 29 28 28 28 26 23 24 25 26 27 28 28 28 27 26 27 29 29
35 35 36 39 41 43 46 49 51 51 48 45 43 42 43 43 42 40 40 41 41 41 42 43 43 43 43 43 42 42 42 41 41 41 40 41 41 41 42 43 44 45 44 43 43 42 41 42 42 40 38 37 35 35 35 36 37 38 36 33 31 29 29 29 29 30 30 29 28 28 26 23 22 23 25 26 26 27 26 26 26 25 26 27 27
44 43 42 42 44 47 49 52 54 53 52 49 48 47 46 46 45 43 42 43 43 43 44 45 45 44 44 44 43 43 42 42 42 42 41 41 41 42 42 43 43 42 41 42 42 42 42 42 40 39 37 36 36 36 37 37 37 38 36 32 29 28 28 29 29 29 29 29 28 27 25 23 22 23 25 25 25 26 25 25 24 25 25 26 27
51 52 50 48 49 51 52 53 54 54 54 53 52 51 50 49 48 47 46 45 46 46 46 47 47 46 45 45 44 43 42 42 42 42 42 42 42 42 43 43 43 42 42 42 43 42 41 40 39 38 37 37 37 37 37 36 36 36 34 31 29 28 28 28 28 28 29 29 28 25 23 23 23 23 24 26 26 25 26 25 25 26 27 28 28
55 57 55 51 51 54 55 55 55 55 54 53 52 52 52 52 51 51 49 47 46 46 47 49 48 47 46 45 45 44 43 42 42 43 43 44 43 43 44 44 44 43 43 43 43 41 39 39 38 38 37 38 38 36 35 34 35 34 33 30 28 28 27 27 27 28 28 28 27 24 23 24 24 23 24 26 26 27 28 27 27 29 30 30 31
52 56 55 52 51 53 54 55 55 55 55 54 53 52 52 51 51 51 50 48 46 45 47 49 49 47 46 46 46 45 43 42 42 43 43 44 44 44 45 45 45 44 43 42 41 39 38 38 39 38 38 37 36 34 33 32 32 33 32 31 30 28 27 27 27 27 27 27 26 25 24 25 25 24 25 27 28 29 30 30 31 32 32 33 33
42 47 50 50 50 51 52 53 53 54 54 54 53 51 50 48 46 46 47 46 45 45 47 48 48 46 46 46 46 45 42 41 42 42 43 43 43 44 45 45 44 43 42 41 39 38 38 39 39 38 37 36 33 32 31 31 32 33 34 33 31 29 27 27 27 27 28 27 26 26 26 26 26 26 27 29 31 32 33 34 34 34 34 34 33
38 41 44 46 48 49 51 52 52 54 54 54 53 50 47 45 43 43 44 45 45 45 47 48 48 47 46 45 45 43 41 40 40 41 41 41 42 43 43 43 42 42 40 39 38 38 39 38 38 37 36 34 32 31 32 32 33 34 34 34 32 29 27 27 27 28 28 28 27 27 27 26 27 28 29 31 32 34 35 35 34 34 34 34 33
39 40 42 44 46 47 48 50 51 53 55 55 54 51 47 44 42 41 41 43 44 45 47 49 50 48 46 44 43 42 40 38 39 39 39 39 40 41 41 41 42 41 40 39 39 39 38 37 37 37 36 35 34 33 32 33 34 34 34 34 33 30 28 27 28 28 28 28 28 28 27 27 28 29 30 32 33 34 34 34 33 33 34 33 32
41 41 41 43 44 46 47 48 49 51 53 55 55 54 50 47 43 41 40 41 43 44 46 49 51 51 49 46 44 43 41 39 38 38 38 39 40 40 40 41 42 41 41 41 40 39 38 37 37 37 37 36 36 35 34 34 33 33 34 35 34 31 28 28 29 28 28 28 29 29 29 29 30 31 31 33 33 33 33 33 32 32 32 32 32
42 41 41 42 43 44 46 47 48 49 51 52 54 54 52 49 46 43 41 41 42 44 46 48 51 52 52 50 49 47 45 42 40 40 40 39 40 40 41 42 42 42 42 41 41 39 38 37 37 37 38 38 37 36 36 34 33 33 34 35 34 31 29 30 30 28 28 30 31 31 31 31 31 32 32 33 33 33 32 32 31 31 31 31 32
41 41 41 41 42 43 44 46 47 48 48 49 50 51 51 50 48 46 44 42 43 45 47 49 51 52 53 53 52 51 48 46 43 43 43 42 41 42 42 42 42 43 43 43 41 39 38 38 37 37 38 40 39 37 36 35 34 33 33 33 33 32 31 31 30 29 30 32 33 33 33 33 32 33 33 33 33 32 32 31 30 30 31 31 31
40 41 41 42 42 43 43 45 46 47 48 49 49 49 49 49 49 48 46 45 44 44 46 48 51 53 54 55 54 53 51 49 47 46 46 46 45 45 44 43 42 42 44 44 42 40 39 38 38 38 38 40 41 39 37 36 35 34 32 32 33 33 34 33 32 31 32 33 34 35 35 34 34 33 33 32 32 31 30 29 29 30 30 30 30
38 39 40 40 41 41 42 43 44 46 48 49 50 51 50 49 49 49 49 48 47 46 45 46 48 51 53 54 55 54 53 51 50 50 50 50 50 48 47 46 45 44 45 44 43 41 40 40 39 39 39 40 41 42 41 39 37 35 33 34 34 34 35 35 34 33 33 34 36 36 36 35 34 34 32 31 30 29 28 28 28 29 30 30 29
35 36 37 38 39 40 40 41 41 43 44 46 49 51 51 51 51 50 50 49 49 48 47 46 46 48 49 51 54 55 55 53 51 51 52 53 53 52 51 50 49 48 46 45 44 43 41 41 41 42 42 40 40 42 43 42 39 37 36 36 36 36 37 37 36 35 35 36 37 37 36 35 34 33 31 29 28 27 27 27 28 29 29 29 29
37 37 38 38 39 40 41 41 41 42 42 43 45 47 49 50 50 50 50 50 49 49 48 47 46 46 47 48 51 54 56 55 53 52 52 52 52 52 52 52 52 52 50 48 45 44 43 43 42 43 44 43 41 41 43 44 42 40 39 39 38 38 39 38 38 38 38 38 37 36 35 34 33 31 29 27 26 26 26 27 28 28 29 29 29
41 42 43 43 43 44 44 44 44 44 43 42 43 44 46 48 48 48 49 49 49 48 47 47 47 47 47 47 48 52 55 56 55 53 52 51 50 50 50 51 52 53 53 52 49 47 45 45 44 44 45 45 44 42 42 43 44 44 42 41 40 40 40 40 40 40 39 38 37 36 35 34 32 29 27 26 26 26 27 27 28 28 28 28 29
43 43 44 45 46 47 48 49 49 49 48 47 45 44 44 46 47 47 47 47 47 48 48 47 47 48 49 47 47 50 55 56 55 54 53 51 49 47 48 49 49 51 53 54 54 52 50 49 48 47 47 46 46 44 43 44 45 46 44 42 41 41 41 41 42 41 40 38 37 36 34 32 30 27 26 25 26 26 27 28 27 27 27 28 28
43 43 44 44 44 46 47 48 50 50 51 51 51 49 47 46 47 48 48 47 46 47 48 48 48 48 50 49 47 48 53 56 55 53 52 51 47 46 47 48 48 49 50 52 53 54 53 53 52 50 49 47 46 46 45 44 45 46 45 43 43 42 42 43 43 41 39 38 36 35 33 31 28 26 26 26 26 27 27 27 27 27 27 27 28
42 42 43 43 44 44 43 44 45 47 48 49 50 50 50 49 49 50 50 49 48 47 47 49 49 49 50 51 50 48 50 54 54 52 53 52 49 48 49 48 47 48 49 49 50 51 52 53 53 52 50 49 47 46 45 45 46 46 45 44 44 43 43 43 42 40 38 37 35 34 32 29 27 26 26 27 27 27 27 27 26 26 26 27 27
41 40 40 41 41 42 42 43 43 45 46 46 47 48 49 49 50 51 51 51 50 50 50 49 49 50 50 51 52 50 48 51 54 54 55 56 54 53 52 49 47 48 49 49 49 50 52 53 53 52 51 49 47 46 46 47 47 46 45 45 44 44 43 42 40 39 38 37 35 33 31 29 27 27 27 27 27 26 26 25 25 25 26 26 27
43 42 41 41 40 41 41 42 42 43 45 46 48 49 49 49 49 50 51 52 52 52 53 52 51 51 51 51 51 51 49 50 53 55 56 58 58 57 55 51 49 49 50 51 51 52 53 54 54 53 51 49 48 48 48 48 47 46 46 45 44 43 42 41 40 39 37 36 35 33 30 29 28 28 28 27 26 25 24 24 24 24 25 26 27
45 44 43 43 43 43 43 43 43 44 45 46 48 49 51 51 51 50 50 51 52 53 54 54 54 53 52 50 50 51 51 50 52 54 57 59 60 59 56 54 51 49 50 53 54 54 54 54 54 53 52 50 50 50 50 48 47 46 47 46 45 44 42 41 40 38 37 36 34 32 30 29 29 28 28 27 26 25 24 24 23 24 24 26 27
46 45 45 45 45 46 46 46 46 46 47 48 48 49 50 52 53 53 51 51 53 53 53 54 54 54 53 51 49 50 52 51 51 54 58 60 61 60 58 56 53 51 51 54 55 54 53 53 53 53 53 52 51 51 49 48 46 46 46 46 45 44 42 41 40 39 38 36 34 32 31 30 29 28 27 26 25 25 24 24 23 24 25 26 27
47 46 46 46 47 47 48 48 48 48 48 48 48 48 49 50 52 53 53 52 53 53 53 53 53 53 54 52 49 49 51 52 52 53 58 61 62 61 59 57 56 55 54 55 56 54 53 52 52 52 52 52 52 51 49 48 46 46 47 46 45 44 43 42 41 40 38 36 34 33 32 31 29 28 28 27 26 25 25 24 24 25 26 27 28
49 48 48 47 47 48 48 48 49 49 49 48 48 48 49 49 51 52 53 54 54 53 53 52 51 52 53 53 51 48 49 51 52 53 56 60 62 62 61 60 59 58 56 56 56 54 52 51 50 50 50 51 51 50 49 47 46 47 47 47 46 45 44 43 41 39 37 35 34 33 32 31 30 29 29 27 27 26 26 26 26 26 27 28 29
50 49 49 48 48 48 48 48 48 49 48 48 48 48 49 50 51 53 54 55 55 56 54 52 51 51 51 52 52 49 46 49 52 53 54 57 60 62 62 62 61 59 56 55 55 54 51 49 49 49 50 50 50 49 48 46 46 47 47 47 46 45 44 43 41 39 37 36 35 34 34 33 32 31 30 29 28 28 28 28 27 27 28 29 30
51 50 49 48 48 48 48 48 48 49 49 48 49 49 50 50 52 53 54 55 56 58 57 55 53 53 52 52 52 49 45 45 49 52 53 56 59 62 63 63 62 59 56 54 54 54 51 49 48 48 48 48 48 48 47 47 47 48 48 47 46 45 44 42 40 39 38 37 37 36 35 34 33 32 30 30 30 30 30 30 29 29 29 30 31
51 50 49 49 49 49 49 49 48 49 49 49 49 49 50 51 52 53 54 55 57 60 60 57 55 55 54 53 53 51 47 46 47 50 52 55 57 59 61 61 60 58 56 55 55 54 51 49 48 47 46 46 46 47 47 48 48 48 48 47 46 46 45 43 42 41 40 39 39 38 37 35 34 32 32 32 32 32 32 32 31 31 31 31 32
51 50 50 50 50 50 50 50 50 49 50 50 50 50 51 52 53 54 54 55 57 60 62 60 57 56 56 55 54 53 51 48 47 48 49 51 52 54 55 56 57 56 55 55 55 53 51 49 47 46 45 46 46 46 47 48 48 48 48 48 47 47 46 44 43 42 41 41 40 39 37 36 35 34 34 34 34 34 34 34 34 33 33 33 33
53 52 52 52 53 53 53 52 52 51 51 51 52 52 52 53 54 55 55 56 56 59 62 62 59 56 56 56 55 54 52 50 48 47 49 50 52 54 54 55 55 55 54 54 54 52 50 49 47 47 47 46 45 46 48 49 49 48 49 49 48 47 46 45 43 42 42 42 41 39 38 37 36 36 37 37 36 36 36 36 36 35 35 35 35
56 55 54 54 55 56 56 55 55 54 54 54 54 55 54 54 54 54 56 57 57 59 62 63 60 56 55 55 55 54 52 49 48 49 51 53 55 57 58 58 57 56 55 54 53 52 50 49 47 48 48 47 46 47 49 49 49 49 49 49 48 48 47 45 44 44 43 42 41 40 39 38 38 39 39 39 39 39 39 38 38 38 37 36 36
59 58 58 58 58 59 59 58 57 57 57 57 56 56 56 56 55 55 56 57 58 59 61 62 60 57 56 55 55 54 53 51 50 51 52 53 55 56 58 59 59 57 56 54 53 52 51 49 47 48 49 48 47 48 49 50 50 50 50 50 50 49 47 46 45 44 43 42 42 41 40 40 41 42 42 41 41 41 41 40 40 40 38 37 36
63 62 61 61 61 62 62 61 61 60 60 59 58 58 58 57 56 56 56 56 57 58 59 59 59 57 57 56 56 56 56 54 53 52 52 52 53 55 56 57 57 57 56 54 53 52 51 50 48 48 49 48 48 48 50 50 50 51 51 51 51 49 48 47 45 44 43 42 42 42 42 42 43 44 44 44 43 43 42 42 42 40 38 36 35
68 67 66 65 65 66 66 65 64 63 62 60 60 59 59 58 57 57 57 56 57 57 57 57 56 57 57 57 57 58 58 57 55 54 53 52 52 53 54 55 55 55 55 54 53 52 51 51 50 50 49 49 49 50 51 51 51 51 51 52 51 50 49 47 44 43 43 43 43 43 43 44 45 46 45 45 45 44 44 43 41 39 36 35 35
72 71 71 70 69 69 69 68 66 64 63 61 60 60 59 58 57 57 57 57 57 57 57 56 56 56 57 58 57 57 58 58 58 56 54 52 52 52 52 54 54 55 54 53 52 51 51 52 52 52 51 50 51 52 53 53 53 53 53 53 52 50 47 45 44 44 45 45 44 44 45 47 47 47 46 46 45 44 43 41 39 36 35 35 34
75 75 74 74 73 72 71 69 66 64 62 61 60 59 58 58 57 57 57 57 57 58 58 57 57 57 58 58 57 56 56 57 57 56 54 52 51 51 51 52 53 54 54 53 52 52 52 53 54 54 52 52 53 54 54 54 54 54 54 54 52 50 48 47 47 47 46 45 44 46 48 49 48 47 46 45 44 42 40 38 36 35 34 34 33
77 76 76 75 74 73 71 68 65 63 61 60 60 59 58 57 57 57 57 57 58 58 59 59 60 60 59 59 58 57 56 55 55 54 53 52 50 49 49 49 50 51 52 53 53 53 53 54 55 55 54 54 55 55 55 54 54 55 54 53 52 51 51 50 49 48 46 45 46 48 49 49 48 46 45 43 41 39 37 36 35 34 33 32 30
75 75 74 73 72 71 69 66 63 61 60 59 59 58 57 57 57 57 57 57 58 58 59 60 61 62 61 60 60 58 57 56 55 53 51 50 49 48 48 47 47 48 50 52 54 54 54 54 55 55 55 56 56 56 56 55 55 55 54 53 53 52 51 50 48 47 46 47 48 49 49 48 46 44 42 39 37 36 35 34 33 32 30 29 29
70 69 69 68 67 66 64 62 60 59 58 58 57 57 56 56 55 54 53 53 54 55 58 60 61 61 61 61 60 58 56 55 54 51 49 48 47 47 46 46 45 45 47 50 53 54 54 54 54 55 56 57 57 57 56 56 55 55 55 54 53 52 51 49 49 48 47 48 49 48 47 45 42 39 37 36 35 34 33 32 31 30 29 28 27
62 62 62 61 61 60 58 58 57 57 56 57 56 55 54 53 51 49 48 47 48 50 53 55 57 58 59 59 58 56 54 53 53 52 50 49 47 46 45 44 43 43 45 47 50 53 54 54 54 56 57 57 57 56 56 56 56 56 56 55 54 52 51 50 49 48 48 48 47 45 43 40 37 35 34 33 33 32 31 30 29 28 27 27 26
57 57 56 56 56 55 55 55 55 55 55 56 56 55 54 52 51 50 49 48 48 48 48 49 50 52 54 55 54 53 52 52 52 52 51 51 49 47 45 43 42 42 44 46 49 51 53 54 54 55 56 57 57 57 57 57 58 57 56 55 54 52 51 50 49 49 48 46 43 40 37 35 33 33 33 32 31 30 29 28 27 27 26 25 24
Wind_Direction
249 250 254 260 266 269 269 266 264 264 263 262 260 257 254 251 251 252 253 254 256 259 262 264 264 264 265 265 266 266 266 265 265 265 266 266 267 266 266 266 267 269 270 269 268 268 270 271 272 273 274 276 277 279 280 281 281 282 284 286 286 286 286 286 288 291 291 286 280 276 275 273 274 275 271 267 267 270 274 276 281 284 283 280 280
249 252 256 261 266 267 265 262 261 260 260 260 260 259 257 255 254 254 255 256 257 259 261 262 263 264 265 266 266 267 266 266 265 265 266 266 267 267 266 265 266 267 269 268 267 268 269 271 272 274 275 276 278 279 280 281 281 283 284 284 285 286 286 286 287 289 288 284 278 277 277 274 273 273 268 264 266 270 275 279 282 283 281 278 277
253 254 257 260 262 262 262 261 260 259 257 257 257 257 256 256 256 256 256 257 257 259 261 262 263 264 265 266 267 267 267 267 267 267 267 268 268 267 266 264 264 265 267 267 266 267 269 270 272 274 276 277 279 280 281 281 281 282 282 283 284 285 285 284 285 285 283 281 277 276 275 273 273 272 267 264 267 273 277 279 282 282 280 278 278
257 257 258 258 259 260 261 261 260 259 258 257 256 256 254 254 254 255 256 257 258 259 261 262 264 265 266 267 268 269 269 269 269 269 269 269 269 268 265 262 261 263 265 266 265 267 269 271 273 275 276 278 279 280 280 279 279 280 281 282 283 284 283 281 278 276 274 274 275 274 273 273 275 274 268 266 271 277 279 280 282 281 280 280 281
260 258 256 255 256 258 258 258 258 257 258 258 258 258 257 256 255 255 256 258 259 260 262 263 264 265 267 268 269 269 269 270 270 270 270 270 269 268 265 261 260 261 263 264 265 267 269 271 273 275 277 277 277 277 277 277 277 278 279 280 280 280 277 273 268 266 267 271 274 275 274 275 277 273 268 269 275 279 279 278 279 281 281 281 284
261 255 253 252 252 253 254 255 255 256 257 259 260 261 262 262 262 260 260 260 260 261 262 263 264 265 267 268 269 269 269 270 270 271 271 271 269 267 265 261 259 260 262 264 265 267 269 271 273 274 275 274 274 274 274 275 276 276 277 278 277 275 270 265 261 262 265 270 275 277 277 279 278 272 270 273 276 278 277 274 274 278 281 281 281
256 253 251 249 251 254 257 258 259 259 260 260 262 265 266 268 268 267 266 265 264 263 263 264 265 266 267 268 269 270 270 270 270 271 271 271 270 268 265 261 259 260 261 263 265 267 269 271 272 271 270 270 271 273 274 274 273 274 275 276 274 270 264 261 262 264 266 270 275 278 279 280 278 272 272 275 276 278 282 281 280 281 281 279 277
247 249 251 252 255 260 263 264 264 264 264 264 265 268 270 272 273 273 272 270 269 268 267 267 267 267 269 270 271 271 271 271 271 272 272 272 270 268 265 262 260 260 262 264 265 267 268 268 268 267 267 268 270 271 271 271 272 273 273 272 269 264 261 262 264 266 268 270 273 276 279 281 279 274 274 276 278 281 283 282 278 276 276 276 276
246 249 253 257 261 264 265 266 266 265 264 265 267 270 273 275 276 277 277 276 274 272 271 270 269 269 270 271 272 272 271 271 272 272 273 272 270 268 265 263 261 261 263 264 265 265 265 265 264 265 266 267 267 268 269 271 272 272 272 270 266 261 259 263 267 269 269 270 272 276 279 280 278 275 277 278 279 279 278 276 273 271 272 274 276
252 252 254 257 260 262 264 265 265 264 264 266 269 272 274 275 276 278 280 280 277 276 274 273 271 271 271 271 271 271 271 271 272 272 272 271 270 267 265 263 262 262 263 263 263 262 261 262 264 265 265 264 265 266 269 271 273 272 271 268 263 259 260 264 268 271 271 271 274 276 276 276 275 275 276 276 276 276 276 276 276 275 275 277 279
263 260 258 258 260 261 263 265 265 265 266 268 270 273 275 276 276 277 280 280 278 276 274 273 272 272 271 271 270 270 270 271 270 270 270 270 269 267 265 264 263 262 261 260 260 260 260 262 263 263 262 262 263 266 269 272 273 272 270 265 261 260 263 267 270 271 273 273 274 274 272 271 271 270 271 271 271 273 273 274 277 279 280 281 282
272 270 267 264 263 263 264 266 269 270 271 271 272 273 275 276 276 275 277 278 276 273 272 271 271 271 271 270 270 270 270 269 269 269 269 269 268 267 265 264 262 261 260 259 259 260 261 262 261 259 259 261 263 267 270 272 272 270 267 262 261 266 270 272 272 272 273 274 272 271 270 268 265 264 264 265 265 268 271 274 278 281 282 283 283
272 274 273 270 268 268 268 269 271 273 274 274 274 274 274 275 275 275 276 276 275 273 272 270 269 269 269 270 269 269 269 268 268 268 268 268 267 266 265 264 262 260 259 258 259 260 260 259 257 257 259 262 266 269 271 271 270 267 263 260 264 270 273 272 271 271 272 273 271 269 267 264 262 260 260 263 265 269 273 276 278 281 283 283 281
268 270 271 269 268 269 270 270 272 273 274 275 276 276 276 275 276 276 276 275 273 271 270 270 269 268 269 269 269 269 269 268 268 267 267 266 266 264 263 262 261 260 259 258 259 258 256 255 256 258 262 265 268 270 270 269 267 263 260 261 265 268 268 266 265 266 269 271 269 265 261 261 261 260 261 264 268 272 275 278 280 281 282 280 279
267 267 267 267 268 268 268 270 272 274 275 277 278 279 279 278 277 276 276 275 273 270 268 267 267 267 268 269 268 268 268 268 267 266 266 265 264 263 262 261 260 259 258 257 255 254 254 255 258 261 264 266 267 268 267 265 262 260 261 264 265 264 263 262 263 264 266 266 264 260 258 259 261 262 264 267 270 273 276 279 280 280 280 280 280
269 268 268 270 271 271 271 273 274 275 276 278 280 282 282 282 280 278 276 275 273 270 268 266 265 265 266 267 267 267 267 267 266 265 265 264 263 262 261 260 259 257 255 253 251 251 253 257 261 264 265 264 263 263 264 263 262 263 265 266 265 262 260 261 262 264 264 262 260 257 257 259 262 265 266 269 272 274 276 277 278 279 280 280 279
269 268 269 272 274 274 276 277 278 278 279 280 281 281 281 281 280 279 278 276 273 270 268 266 264 263 263 264 265 265 264 263 263 262 262 261 261 260 259 258 256 253 251 250 250 253 256 260 263 263 261 259 258 259 262 263 265 265 265 264 264 261 258 258 260 261 261 260 258 258 260 262 265 267 268 271 273 275 276 277 278 278 278 278 278
268 268 269 271 274 275 276 278 279 280 281 282 282 282 281 280 280 279 277 275 274 271 268 267 265 262 260 260 261 261 260 259 258 258 257 257 257 256 256 254 252 250 249 250 252 256 259 262 263 260 258 257 257 258 262 265 266 265 263 263 262 261 258 257 258 258 258 258 258 259 262 263 264 267 270 273 275 276 276 277 276 276 277 277 277
267 267 268 270 273 275 276 277 278 279 280 282 283 284 284 284 284 282 278 275 273 272 270 269 267 264 261 259 258 258 257 255 254 254 253 253 254 254 253 252 251 250 249 252 255 258 262 263 262 258 256 256 257 259 263 266 267 266 263 261 261 261 259 255 254 255 256 256 258 260 262 263 265 269 272 274 275 275 276 276 276 276 276 275 274
266 267 268 269 271 272 274 276 277 278 279 280 282 283 284 285 285 284 281 277 274 272 271 270 269 268 264 261 259 257 256 254 253 252 252 252 252 253 252 251 250 250 251 253 256 259 261 263 261 259 256 256 256 259 261 264 267 266 264 262 262 262 258 254 253 253 254 257 260 262 263 264 267 270 272 273 274 274 275 276 276 276 275 274 273
267 268 269 270 271 272 274 275 276 278 280 281 282 283 284 285 285 285 283 280 277 274 272 270 270 269 268 266 263 260 257 255 253 252 251 252 252 253 253 252 251 251 251 253 255 257 260 262 262 260 258 256 255 257 259 261 264 266 266 264 263 260 258 256 254 254 256 259 262 264 266 267 269 270 271 272 272 273 275 277 277 277 277 276 275
270 271 272 273 274 275 276 277 277 278 280 282 283 284 285 286 286 286 285 284 281 279 276 273 270 269 269 268 268 265 261 256 254 253 252 252 253 253 254 254 254 253 252 252 253 255 258 260 261 261 260 257 256 256 257 259 261 264 266 264 261 259 259 259 257 256 257 260 262 265 267 268 269 269 270 271 272 274 277 279 280 280 279 277 275
274 274 275 275 276 277 279 279 279 279 280 281 282 284 286 287 287 287 287 287 285 284 282 279 275 271 269 268 268 267 264 259 255 254 254 254 254 254 255 255 256 256 255 254 253 254 256 258 259 260 260 259 258 256 257 258 260 262 264 263 261 261 261 260 259 259 259 260 262 265 266 267 267 268 270 271 273 276 279 281 282 282 280 278 276
277 277 278 279 279 280 280 282 283 283 283 283 282 283 284 285 285 286 287 287 287 287 286 285 281 277 273 269 267 266 265 262 258 255 255 256 256 256 256 256 256 256 256 255 254 254 254 255 257 258 259 260 260 258 257 257 259 261 261 262 261 261 262 261 261 259 259 260 262 264 264 264 265 267 269 271 273 277 281 282 282 281 281 280 278
277 278 280 282 282 283 282 283 284 285 286 287 287 286 285 285 285 285 286 286 287 288 288 287 285 283 278 272 267 265 264 263 260 257 256 257 259 259 259 258 257 256 256 257 256 255 255 255 255 256 258 260 260 260 258 258 259 260 261 260 260 260 261 261 259 258 258 260 261 262 262 263 264 266 267 270 274 278 280 280 281 281 281 281 280
277 279 280 282 283 284 285 285 286 286 287 288 289 290 290 289 287 286 286 287 287 288 288 287 286 283 280 276 270 265 263 263 261 258 256 258 260 262 262 261 259 258 257 257 257 257 257 257 256 256 257 258 259 261 261 259 258 259 260 259 259 260 259 258 257 257 257 257 258 259 260 261 262 263 266 270 274 276 278 278 279 281 282 282 281
276 277 279 280 282 283 284 285 286 286 287 287 288 290 293 294 292 289 287 287 288 288 288 287 286 284 281 277 272 266 263 261 260 257 256 258 260 263 265 264 262 261 259 258 258 258 258 259 258 256 256 256 257 259 260 258 257 258 259 259 259 259 258 256 255 254 254 255 256 257 258 259 259 261 265 269 271 274 275 277 279 281 283 283 282
274 275 277 279 280 282 283 284 285 286 287 287 288 288 290 293 295 293 290 288 289 291 290 289 288 285 281 277 273 267 262 260 259 256 255 257 261 264 266 265 263 262 261 260 259 258 257 257 257 255 254 254 255 257 259 259 258 257 258 258 258 258 256 254 254 254 254 255 255 255 255 255 256 259 263 266 269 272 274 277 279 281 282 283 283
271 272 274 276 278 281 283 285 286 288 289 290 290 289 289 290 292 294 294 291 290 291 293 292 292 289 284 277 273 269 264 261 260 257 253 254 257 260 263 264 263 262 261 261 259 257 256 255 255 254 253 254 255 257 259 259 258 256 257 257 257 256 255 254 254 253 253 252 252 251 250 251 254 257 261 264 267 270 273 276 279 280 281 282 282
271 271 273 274 276 278 280 282 285 288 290 291 292 292 292 291 290 292 294 294 292 291 292 293 294 294 290 283 276 272 268 263 260 256 253 253 255 258 260 262 262 261 260 258 257 255 253 252 252 252 252 253 254 256 258 258 257 256 257 257 257 255 254 253 252 251 250 248 248 247 247 249 252 255 258 262 265 268 271 275 277 279 280 280 281
272 273 274 276 277 279 280 281 284 288 290 292 293 294 294 293 291 290 291 292 293 292 291 291 293 295 296 291 282 274 270 266 261 255 253 253 255 258 260 261 261 261 259 257 256 254 252 250 250 251 251 251 252 254 256 257 257 257 257 257 256 253 252 251 250 249 247 245 244 244 245 248 250 253 256 260 263 266 269 272 274 277 278 278 279
274 274 275 277 279 281 283 284 285 288 290 292 294 295 296 295 294 292 291 290 290 291 290 290 291 293 297 297 288 277 271 269 265 259 254 253 255 257 259 260 261 261 260 257 255 255 253 251 250 250 250 251 252 253 255 257 256 256 257 256 254 252 251 250 248 245 243 241 241 242 244 246 248 251 255 258 261 264 268 270 272 273 275 276 277
276 276 277 278 279 281 283 285 287 289 291 293 294 295 297 297 295 294 293 291 290 289 289 290 290 291 293 295 293 283 274 270 269 264 258 255 255 257 259 260 260 261 259 256 255 255 254 253 251 250 250 250 251 252 254 256 256 256 256 255 253 251 250 247 244 241 239 239 240 240 242 244 247 250 253 256 259 263 266 268 269 271 273 274 276
277 277 278 279 280 281 283 285 287 289 292 294 295 296 298 299 298 296 293 291 290 289 288 287 287 288 288 291 293 288 278 271 269 267 262 258 257 258 259 259 259 260 259 255 254 253 253 253 252 251 251 251 252 253 253 254 254 254 254 252 251 249 247 243 241 239 238 238 238 239 241 243 245 248 251 254 257 261 265 267 269 271 273 275 277
277 278 278 279 279 280 282 284 286 288 291 292 294 297 299 301 302 299 294 290 288 287 286 285 284 284 284 286 289 289 283 275 270 268 265 261 259 258 258 257 258 260 259 256 254 253 253 254 253 252 252 252 252 253 253 253 253 253 252 251 250 248 245 242 240 239 237 236 237 238 240 241 244 247 250 254 258 261 264 266 268 270 273 276 279
276 276 277 278 278 279 281 282 284 287 289 291 292 295 298 301 303 302 297 291 287 284 283 281 279 279 280 281 284 287 285 277 271 268 267 264 261 258 257 257 258 259 258 256 254 253 254 255 254 253 252 251 252 252 252 252 252 251 250 249 248 246 243 240 238 236 235 235 236 236 238 240 243 247 251 255 258 261 263 265 268 270 274 278 281
275 275 276 277 278 279 280 281 283 285 287 289 291 293 297 300 302 302 299 294 288 284 282 279 276 275 276 277 278 281 282 278 272 268 267 264 261 259 259 259 260 259 257 254 252 250 251 253 253 253 252 252 253 253 252 250 250 249 248 248 246 243 240 237 235 233 233 234 235 236 238 240 244 248 253 256 259 261 263 265 268 271 276 280 283
274 276 277 278 279 279 280 281 283 284 286 288 290 293 296 299 300 300 298 293 289 286 284 280 276 273 273 273 273 275 276 275 272 270 268 265 263 262 261 261 260 259 258 255 251 248 249 251 252 252 252 252 253 253 251 250 249 248 247 246 243 239 237 235 232 231 232 233 234 236 238 242 246 250 254 257 259 261 263 266 268 271 276 281 283
275 276 278 279 280 281 281 282 283 284 286 288 290 293 295 297 299 298 295 291 288 286 285 283 278 274 272 271 271 271 271 271 270 269 267 265 263 262 261 261 260 260 259 257 253 248 247 249 251 250 249 249 251 251 250 249 248 247 246 244 241 238 236 234 233 233 234 234 235 237 240 244 248 252 255 258 260 262 264 266 268 271 275 279 280
277 277 278 279 280 281 282 283 284 285 287 288 290 292 294 295 296 295 293 290 287 285 285 284 281 276 273 272 270 268 267 267 265 263 261 261 260 261 261 262 262 261 260 259 255 250 248 249 251 250 247 247 247 247 247 247 246 246 244 242 239 236 235 234 233 233 234 234 236 239 242 245 249 253 256 258 261 263 265 267 268 270 273 276 278
279 279 279 279 280 281 282 283 284 286 288 289 290 291 293 293 292 291 289 288 287 285 284 284 282 278 274 272 269 266 263 262 261 259 259 259 260 261 262 263 263 262 260 258 254 250 248 249 251 250 248 246 244 243 243 243 244 243 242 240 237 235 234 232 232 233 234 234 237 240 243 247 251 254 257 259 261 263 265 267 269 269 271 274 276
279 279 279 279 280 281 282 283 284 286 287 288 289 290 291 290 288 287 286 285 285 285 284 284 283 280 276 273 270 265 262 260 259 259 259 260 261 262 263 263 263 262 259 256 253 250 247 247 249 250 248 245 242 241 241 241 242 242 240 238 237 235 234 233 233 234 234 235 238 241 244 248 252 255 257 260 262 263 266 267 268 269 270 273 276
278 279 279 279 279 280 281 282 284 285 285 286 287 287 288 287 285 284 282 282 283 284 284 284 282 279 276 274 272 268 263 261 259 258 259 260 261 262 263 263 261 260 256 252 250 248 246 245 245 246 246 244 241 240 239 239 240 240 239 237 236 235 234 233 234 234 235 237 239 242 246 250 254 256 258 260 262 264 266 267 268 269 270 273 276
277 277 277 278 278 279 280 281 281 282 283 284 284 285 285 285 283 281 280 280 281 282 283 283 282 279 275 274 273 270 266 262 259 258 258 259 259 261 262 262 260 257 253 249 247 247 245 243 242 242 241 240 239 238 237 237 236 236 236 235 235 235 234 234 234 235 236 238 240 244 248 252 255 258 259 261 263 265 266 267 268 269 271 273 275
275 275 275 275 276 276 277 278 279 280 280 281 282 282 283 282 280 278 277 277 278 279 281 282 281 278 275 274 274 272 269 264 259 257 256 257 257 258 259 259 258 255 251 247 245 244 243 241 240 239 238 236 236 235 235 235 234 233 233 233 234 234 234 234 235 236 237 238 241 246 251 254 256 258 260 262 263 265 266 267 268 270 271 272 273
272 272 272 273 273 274 275 276 277 278 278 279 280 280 280 280 278 277 276 275 275 276 277 279 279 278 276 275 274 273 270 265 259 255 254 255 256 257 258 258 257 255 251 246 243 242 240 239 238 237 235 233 233 233 232 232 231 231 231 232 232 232 232 233 234 235 237 239 243 248 252 255 257 259 261 262 263 264 265 267 267 268 268 269 272
271 271 271 271 271 272 273 274 275 276 276 277 278 278 278 278 277 276 275 274 273 273 274 275 276 276 275 275 274 274 271 266 259 255 254 254 255 257 259 260 260 259 255 249 244 241 238 237 236 235 232 231 230 230 230 229 229 230 232 233 233 234 234 234 235 236 238 242 246 250 254 256 258 259 260 261 262 263 264 265 265 265 266 268 272
272 271 271 271 270 271 271 272 273 273 274 275 275 276 276 276 276 275 274 273 272 272 272 272 272 272 273 273 273 273 272 267 260 255 254 254 255 256 257 259 261 262 260 254 247 241 237 235 234 232 229 228 228 228 227 226 228 230 232 233 234 235 235 236 237 239 241 245 249 252 254 255 256 257 258 260 261 262 262 262 262 263 265 268 272
271 270 270 269 269 269 270 270 271 271 271 272 273 274 274 275 275 274 274 272 271 271 271 271 269 268 270 271 272 272 272 269 264 259 255 253 253 254 255 256 258 261 261 257 250 243 238 235 232 229 226 225 225 225 224 225 227 229 231 232 233 233 234 236 238 241 244 247 250 251 253 254 255 257 258 259 259 260 260 260 261 263 266 269 272
268 268 267 267 267 267 267 267 268 269 269 270 271 271 271 271 272 272 272 271 272 272 273 271 268 266 266 268 270 271 271 270 268 265 261 256 252 252 253 255 257 259 258 254 248 242 238 235 231 227 224 223 223 223 223 224 226 228 229 230 231 233 235 238 241 244 246 247 249 250 251 253 255 256 257 257 257 257 258 259 260 263 266 269 272
264 264 264 264 264 264 264 265 265 266 267 268 268 267 266 267 268 269 269 270 272 273 274 273 269 265 265 267 269 270 271 270 269 269 266 261 255 251 251 253 255 256 254 249 242 238 236 234 229 225 223 223 223 223 224 224 225 226 228 229 232 234 237 240 242 243 245 246 247 249 251 253 254 254 254 254 255 255 256 258 260 263 266 269 271
Height
3096 3096 3096 3096 3096 3096 3096 3096 3095 3095 3095 3094 3094 3095 3096 3096 3097 3097 3097 3098 3098 3098 3098 3098 3098 3097 3097 3097 3097 3096 3096 3095 3094 3093 3091 3091 3092 3093 3093 3094 3094 3095 3096 3097 3097 3097 3096 3095 3094 3095 3094 3092 3092 3092 3091 3090 3089 3088 3086 3085 3084 3083 3082 3079 3076 3077 3078 3078 3076 3076 3076 3075 3074 3074 3073 3072 3072 3071 3071 3071 3070 3069 3068 3068 3068
3092 3091 3091 3092 3092 3091 3091 3091 3091 3091 3090 3090 3091 3091 3092 3092 3093 3092 3092 3093 3093 3093 3093 3093 3092 3092 3091 3091 3091 3091 3091 3090 3089 3088 3087 3087 3087 3087 3088 3089 3089 3090 3091 3091 3092 3092 3091 3090 3089 3090 3089 3087 3087 3087 3086 3085 3084 3082 3082 3080 3079 3079 3078 3075 3073 3072 3072 3073 3072 3072 3072 3072 3071 3070 3069 3069 3069 3069 3068 3068 3067 3066 3066 3065 3065
3087 3087 3087 3087 3087 3087 3086 3086 3086 3086 3086 3086 3086 3087 3087 3087 3087 3087 3087 3088 3088 3087 3087 3087 3087 3086 3086 3086 3086 3086 3085 3085 3084 3083 3082 3082 3083 3082 3083 3084 3084 3085 3085 3086 3087 3087 3085 3085 3084 3085 3084 3082 3082 3082 3081 3080 3079 3077 3077 3076 3075 3074 3073 3071 3069 3068 3067 3068 3068 3067 3068 3068 3067 3066 3066 3066 3066 3065 3065 3065 3064 3064 3062 3062 3061
3082 3082 3083 3083 3082 3082 3082 3082 3082 3082 3082 3082 3082 3082 3082 3082 3082 3082 3082 3082 3082 3082 3082 3082 3082 3081 3080 3081 3081 3081 3080 3080 3079 3078 3077 3078 3077 3077 3078 3078 3079 3079 3080 3081 3081 3081 3080 3079 3079 3080 3079 3077 3076 3076 3075 3075 3074 3073 3072 3072 3070 3069 3068 3067 3065 3064 3064 3063 3063 3063 3064 3064 3063 3063 3063 3062 3062 3062 3062 3061 3061 3060 3059 3058 3058
3079 3078 3078 3078 3078 3078 3078 3078 3078 3077 3077 3078 3078 3078 3077 3077 3077 3077 3077 3077 3077 3077 3077 3077 3076 3076 3075 3076 3075 3075 3075 3075 3074 3073 3073 3073 3072 3072 3072 3073 3073 3074 3075 3075 3076 3075 3075 3074 3074 3074 3073 3072 3071 3071 3071 3070 3070 3069 3068 3067 3066 3065 3063 3062 3061 3061 3059 3058 3058 3059 3060 3061 3061 3060 3060 3059 3059 3059 3058 3058 3058 3057 3056 3055 3054
3075 3075 3075 3075 3075 3075 3074 3074 3074 3073 3073 3073 3073 3073 3073 3073 3073 3073 3073 3072 3072 3072 3072 3072 3072 3071 3071 3070 3070 3070 3070 3069 3068 3068 3068 3068 3067 3067 3067 3067 3068 3069 3069 3070 3070 3070 3069 3069 3069 3068 3067 3067 3067 3066 3066 3066 3065 3064 3063 3063 3061 3060 3058 3058 3057 3056 3055 3054 3054 3055 3056 3057 3058 3057 3057 3056 3056 3056 3055 3055 3055 3053 3052 3052 3051
3072 3072 3072 3072 3072 3072 3071 3070 3070 3069 3069 3069 3069 3069 3069 3069 3069 3068 3068 3068 3067 3067 3067 3067 3067 3066 3065 3065 3065 3065 3065 3064 3063 3063 3063 3063 3062 3062 3062 3062 3063 3063 3064 3064 3065 3064 3064 3064 3063 3063 3062 3062 3062 3062 3061 3061 3060 3060 3059 3058 3056 3054 3053 3053 3053 3052 3051 3050 3051 3052 3053 3054 3054 3054 3054 3053 3053 3052 3052 3051 3051 3050 3049 3049 3048
3068 3068 3068 3068 3068 3068 3066 3065 3065 3065 3064 3064 3065 3065 3065 3065 3064 3064 3063 3063 3063 3063 3062 3062 3061 3061 3060 3060 3060 3060 3059 3059 3058 3059 3058 3058 3058 3057 3057 3057 3058 3058 3058 3058 3059 3058 3058 3058 3058 3058 3058 3057 3057 3057 3056 3056 3055 3055 3054 3053 3051 3050 3049 3049 3049 3048 3047 3047 3047 3048 3049 3050 3050 3050 3050 3050 3049 3049 3048 3047 3046 3046 3045 3044 3044
3063 3063 3063 3063 3063 3062 3060 3059 3058 3058 3058 3059 3060 3061 3061 3060 3060 3060 3059 3059 3059 3058 3058 3057 3056 3056 3056 3056 3055 3055 3054 3054 3054 3054 3054 3053 3053 3052 3052 3052 3052 3052 3053 3053 3053 3053 3053 3053 3053 3053 3052 3052 3052 3051 3051 3051 3051 3050 3050 3048 3047 3047 3046 3045 3045 3044 3043 3043 3043 3044 3045 3046 3046 3046 3046 3046 3046 3045 3044 3042 3042 3042 3041 3040 3040
3059 3059 3058 3058 3057 3056 3054 3053 3051 3050 3052 3055 3056 3056 3056 3056 3056 3056 3055 3055 3054 3054 3053 3052 3051 3051 3051 3051 3050 3049 3049 3049 3049 3049 3049 3048 3048 3047 3047 3047 3047 3047 3047 3047 3047 3047 3048 3047 3047 3047 3047 3047 3047 3046 3046 3046 3046 3045 3045 3044 3044 3043 3042 3042 3042 3041 3040 3039 3039 3040 3040 3041 3041 3041 3041 3041 3041 3040 3039 3038 3037 3037 3037 3036 3036
3055 3055 3055 3054 3053 3052 3050 3048 3046 3047 3049 3051 3052 3052 3052 3052 3052 3052 3051 3051 3050 3049 3048 3047 3047 3046 3046 3045 3045 3044 3044 3044 3045 3044 3044 3044 3043 3042 3042 3041 3041 3041 3041 3042 3042 3042 3042 3042 3042 3042 3042 3042 3042 3041 3041 3041 3041 3041 3041 3040 3040 3039 3038 3038 3038 3038 3037 3036 3036 3035 3035 3035 3036 3036 3036 3036 3035 3035 3034 3034 3033 3033 3033 3032 3032
3051 3051 3050 3050 3049 3048 3046 3045 3044 3044 3046 3047 3047 3048 3047 3047 3048 3047 3047 3046 3045 3044 3043 3042 3042 3041 3040 3039 3039 3039 3039 3039 3039 3039 3039 3039 3038 3037 3037 3036 3036 3036 3036 3036 3037 3037 3037 3037 3037 3037 3037 3037 3037 3036 3036 3036 3036 3036 3036 3037 3036 3035 3034 3034 3034 3034 3033 3032 3032 3032 3031 3031 3031 3031 3031 3031 3031 3030 3030 3030 3030 3029 3029 3029 3028
3046 3046 3045 3045 3044 3043 3042 3041 3040 3040 3040 3041 3041 3042 3042 3042 3042 3042 3042 3041 3039 3039 3038 3037 3036 3035 3035 3034 3034 3033 3034 3034 3034 3034 3034 3033 3033 3032 3031 3031 3031 3031 3031 3031 3031 3032 3032 3032 3032 3032 3032 3032 3032 3031 3031 3031 3031 3032 3032 3032 3032 3031 3030 3030 3030 3030 3029 3028 3028 3028 3028 3027 3027 3028 3028 3027 3027 3027 3027 3027 3026 3025 3025 3025 3025
3040 3039 3039 3039 3039 3038 3036 3035 3034 3034 3033 3034 3035 3035 3036 3036 3036 3036 3035 3035 3034 3033 3032 3032 3031 3030 3029 3029 3028 3028 3028 3028 3029 3028 3028 3028 3027 3027 3026 3026 3026 3026 3026 3026 3026 3027 3027 3027 3027 3027 3027 3027 3027 3027 3027 3027 3027 3028 3028 3028 3027 3026 3026 3026 3026 3025 3025 3024 3024 3025 3025 3024 3024 3025 3024 3024 3024 3024 3024 3023 3023 3021 3021 3021 3020
3033 3033 3033 3033 3033 3031 3030 3029 3029 3028 3027 3028 3028 3029 3029 3029 3029 3029 3028 3028 3028 3027 3027 3026 3026 3025 3024 3023 3022 3022 3023 3023 3023 3022 3022 3022 3022 3021 3020 3020 3020 3021 3021 3021 3022 3022 3022 3022 3022 3022 3022 3022 3022 3022 3022 3022 3023 3023 3024 3024 3023 3021 3021 3021 3021 3021 3021 3021 3021 3021 3021 3020 3020 3021 3021 3021 3021 3020 3020 3019 3018 3017 3017 3016 3016
3027 3027 3028 3028 3027 3026 3025 3024 3023 3022 3022 3022 3022 3022 3023 3023 3023 3023 3022 3022 3021 3021 3021 3021 3020 3019 3018 3017 3017 3017 3017 3017 3017 3017 3016 3016 3016 3015 3015 3015 3015 3016 3016 3017 3017 3018 3018 3018 3017 3017 3017 3017 3017 3017 3017 3018 3018 3019 3019 3019 3018 3017 3017 3017 3017 3018 3017 3017 3017 3017 3017 3017 3016 3016 3017 3017 3016 3016 3015 3015 3014 3014 3013 3012 3011
3022 3023 3023 3022 3021 3021 3020 3019 3018 3017 3016 3016 3016 3016 3017 3017 3017 3017 3016 3016 3015 3015 3015 3015 3014 3013 3013 3012 3012 3012 3012 3012 3011 3011 3011 3011 3010 3010 3010 3010 3010 3011 3011 3012 3012 3013 3013 3013 3013 3013 3013 3013 3013 3013 3013 3013 3014 3014 3014 3014 3014 3013 3013 3013 3013 3013 3014 3013 3013 3013 3013 3013 3012 3012 3012 3012 3012 3011 3010 3010 3010 3010 3008 3008 3007
3017 3017 3017 3016 3016 3015 3014 3013 3012 3011 3010 3009 3009 3009 3010 3010 3010 3011 3011 3010 3010 3009 3009 3008 3008 3007 3007 3007 3006 3006 3006 3006 3006 3006 3006 3005 3005 3005 3005 3005 3005 3006 3007 3007 3008 3008 3008 3008 3008 3008 3008 3008 3008 3008 3008 3009 3009 3010 3010 3009 3009 3009 3009 3009 3009 3009 3010 3010 3009 3009 3009 3009 3008 3008 3008 3007 3007 3006 3006 3005 3005 3004 3003 3003 3002
3011 3011 3011 3011 3010 3009 3008 3007 3007 3006 3005 3004 3003 3002 3003 3003 3004 3004 3005 3005 3005 3004 3003 3002 3002 3002 3001 3001 3001 3000 3001 3001 3001 3001 3001 3000 3000 3000 3000 3000 3000 3002 3003 3003 3003 3003 3003 3003 3003 3003 3003 3004 3003 3003 3003 3004 3005 3005 3005 3005 3005 3006 3006 3004 3004 3005 3006 3006 3006 3005 3005 3004 3004 3004 3003 3003 3002 3002 3001 3001 3000 2999 2999 2998 2997
3007 3006 3006 3006 3005 3004 3003 3002 3001 3000 2999 2998 2997 2997 2997 2997 2998 2998 2998 2999 2999 2998 2998 2997 2997 2996 2996 2995 2995 2995 2996 2996 2996 2996 2995 2995 2995 2995 2994 2995 2996 2997 2997 2997 2997 2997 2998 2998 2999 2999 2999 2999 2999 2998 2999 3000 3000 3000 3000 3000 3001 3002 3002 3000 2999 3000 3001 3001 3001 3001 3001 3000 3000 2999 2998 2998 2998 2997 2997 2996 2996 2995 2994 2993 2992
3002 3002 3001 3001 3000 2999 2998 2996 2995 2994 2993 2993 2992 2992 2991 2991 2992 2992 2992 2992 2992 2992 2992 2992 2991 2991 2990 2990 2989 2990 2990 2991 2991 2991 2990 2990 2990 2989 2989 2990 2991 2991 2992 2992 2992 2992 2993 2993 2994 2994 2994 2994 2994 2994 2994 2995 2995 2995 2996 2996 2997 2998 2997 2995 2995 2996 2996 2997 2997 2997 2996 2996 2995 2995 2994 2994 2993 2993 2992 2992 2991 2990 2990 2989 2989
2998 2997 2996 2996 2995 2994 2993 2992 2990 2989 2988 2987 2986 2986 2986 2985 2985 2985 2986 2986 2986 2985 2985 2985 2985 2985 2985 2984 2984 2984 2984 2985 2985 2985 2985 2984 2984 2984 2984 2985 2986 2985 2985 2985 2986 2987 2988 2989 2989 2989 2989 2989 2989 2989 2989 2990 2990 2991 2991 2992 2992 2992 2992 2991 2991 2991 2992 2992 2992 2992 2992 2991 2990 2990 2989 2989 2989 2988 2988 2987 2987 2986 2986 2985 2985
2993 2993 2992 2991 2990 2989 2988 2987 2986 2984 2983 2982 2981 2980 2980 2979 2979 2979 2979 2978 2978 2978 2978 2978 2977 2977 2978 2978 2978 2978 2978 2978 2978 2979 2979 2978 2978 2978 2979 2979 2980 2979 2979 2980 2981 2982 2982 2983 2983 2983 2983 2983 2983 2984 2984 2984 2985 2986 2986 2986 2987 2988 2987 2987 2987 2987 2987 2987 2987 2987 2987 2986 2986 2985 2985 2984 2984 2983 2983 2983 2982 2982 2981 2981 2981
2988 2988 2987 2986 2985 2984 2983 2982 2981 2980 2978 2977 2976 2975 2974 2973 2973 2973 2972 2971 2971 2971 2971 2970 2970 2969 2970 2970 2971 2972 2972 2972 2972 2972 2972 2971 2971 2972 2972 2973 2973 2973 2973 2974 2975 2976 2976 2976 2977 2977 2977 2977 2978 2978 2978 2979 2980 2981 2981 2981 2982 2982 2982 2982 2982 2981 2981 2981 2981 2982 2982 2981 2981 2980 2980 2980 2979 2979 2979 2978 2978 2977 2977 2976 2976
2983 2983 2982 2981 2979 2978 2978 2977 2976 2975 2974 2972 2971 2970 2969 2968 2967 2966 2965 2965 2964 2963 2963 2963 2962 2962 2962 2962 2963 2964 2965 2965 2965 2965 2965 2964 2964 2965 2965 2966 2966 2966 2966 2967 2968 2969 2970 2970 2970 2971 2971 2971 2972 2972 2973 2974 2975 2975 2975 2976 2976 2977 2976 2976 2976 2976 2976 2976 2976 2976 2976 2976 2976 2976 2976 2975 2974 2974 2974 2974 2973 2973 2972 2972 2972
2978 2977 2976 2975 2974 2973 2971 2971 2971 2970 2969 2968 2967 2966 2964 2963 2961 2960 2958 2957 2956 2956 2955 2955 2955 2954 2954 2954 2955 2956 2957 2958 2958 2958 2958 2958 2958 2958 2958 2958 2958 2959 2960 2960 2961 2963 2963 2963 2964 2964 2964 2965 2965 2966 2967 2968 2968 2969 2969 2970 2970 2970 2971 2971 2970 2970 2970 2970 2971 2971 2971 2971 2972 2971 2971 2970 2970 2970 2969 2969 2969 2969 2968 2968 2968
2972 2971 2970 2969 2968 2967 2966 2965 2964 2964 2963 2962 2961 2961 2959 2957 2956 2954 2952 2950 2949 2948 2948 2947 2947 2947 2947 2947 2947 2948 2949 2949 2950 2951 2952 2952 2952 2952 2951 2951 2951 2952 2953 2953 2955 2956 2956 2956 2956 2957 2957 2957 2958 2959 2960 2961 2961 2962 2963 2964 2964 2964 2964 2964 2964 2964 2964 2965 2965 2966 2966 2967 2967 2966 2966 2965 2965 2965 2965 2964 2964 2964 2964 2964 2963
2966 2965 2964 2962 2962 2960 2959 2959 2958 2957 2957 2956 2955 2954 2953 2952 2950 2948 2947 2944 2942 2941 2940 2940 2940 2939 2939 2940 2940 2939 2939 2940 2942 2945 2946 2946 2946 2945 2944 2944 2945 2945 2946 2947 2947 2948 2948 2948 2948 2948 2949 2950 2951 2952 2954 2954 2955 2956 2957 2958 2958 2957 2957 2957 2957 2958 2959 2960 2960 2961 2961 2961 2961 2961 2960 2960 2960 2960 2960 2960 2959 2959 2959 2959 2959
2960 2959 2958 2956 2955 2954 2953 2953 2951 2950 2950 2949 2948 2947 2946 2945 2943 2942 2941 2939 2937 2935 2934 2933 2933 2932 2931 2931 2931 2931 2931 2933 2936 2939 2939 2938 2937 2936 2936 2937 2938 2938 2939 2939 2939 2939 2939 2939 2940 2941 2942 2943 2944 2946 2947 2948 2949 2949 2951 2951 2951 2951 2950 2950 2951 2952 2953 2954 2955 2955 2956 2956 2955 2955 2955 2955 2955 2955 2954 2954 2954 2954 2954 2955 2955
2954 2953 2952 2951 2950 2948 2947 2947 2945 2944 2943 2942 2940 2940 2939 2938 2937 2935 2934 2933 2931 2930 2928 2927 2926 2925 2924 2923 2923 2924 2925 2927 2929 2930 2930 2930 2929 2928 2928 2929 2930 2931 2931 2931 2931 2930 2930 2930 2932 2933 2935 2937 2938 2939 2940 2941 2942 2943 2944 2945 2945 2944 2945 2945 2946 2946 2947 2948 2949 2949 2950 2950 2950 2950 2949 2949 2950 2949 2949 2949 2949 2949 2949 2950 2950
2947 2947 2946 2944 2943 2942 2941 2940 2939 2938 2936 2935 2933 2932 2931 2931 2930 2929 2927 2926 2925 2924 2923 2921 2920 2919 2917 2916 2916 2917 2918 2919 2920 2922 2923 2923 2922 2921 2921 2921 2922 2923 2923 2923 2922 2921 2921 2922 2924 2926 2928 2930 2931 2932 2933 2934 2935 2937 2938 2938 2938 2938 2939 2939 2940 2940 2941 2942 2943 2943 2944 2944 2944 2944 2944 2945 2945 2945 2944 2944 2944 2944 2944 2945 2945
2940 2940 2939 2938 2936 2935 2934 2933 2932 2931 2929 2928 2926 2924 2923 2922 2922 2922 2921 2919 2918 2917 2916 2915 2914 2913 2912 2910 2909 2909 2911 2911 2912 2914 2915 2915 2914 2914 2914 2914 2915 2915 2915 2914 2913 2912 2913 2915 2917 2919 2922 2923 2924 2925 2926 2927 2929 2930 2931 2931 2932 2933 2933 2934 2934 2935 2935 2936 2937 2938 2938 2938 2939 2939 2940 2940 2940 2940 2940 2939 2939 2939 2939 2939 2940
2933 2933 2932 2931 2930 2928 2927 2926 2925 2924 2922 2921 2919 2918 2916 2914 2913 2913 2913 2912 2911 2910 2909 2909 2908 2907 2906 2904 2903 2902 2903 2904 2904 2906 2907 2908 2907 2907 2907 2907 2907 2906 2905 2904 2904 2905 2907 2909 2910 2912 2914 2916 2917 2918 2920 2921 2923 2924 2924 2925 2926 2927 2928 2928 2928 2929 2929 2931 2931 2932 2932 2933 2933 2934 2935 2935 2935 2935 2935 2935 2934 2934 2934 2934 2935
2926 2926 2925 2924 2922 2921 2920 2919 2917 2916 2915 2914 2912 2911 2909 2908 2905 2904 2904 2904 2903 2903 2902 2902 2901 2900 2899 2898 2897 2896 2896 2896 2897 2898 2899 2900 2900 2900 2900 2899 2898 2897 2895 2895 2896 2898 2900 2902 2904 2906 2908 2909 2911 2912 2913 2915 2916 2917 2918 2919 2920 2921 2921 2921 2922 2923 2924 2925 2926 2926 2927 2928 2928 2929 2930 2930 2930 2930 2930 2930 2929 2929 2929 2929 2930
2919 2918 2918 2917 2915 2914 2913 2911 2910 2909 2908 2906 2905 2903 2902 2901 2899 2897 2896 2895 2895 2895 2895 2894 2894 2893 2892 2891 2891 2891 2890 2889 2889 2890 2892 2893 2893 2893 2891 2890 2888 2887 2887 2888 2890 2892 2894 2896 2898 2900 2901 2903 2904 2905 2907 2908 2909 2910 2911 2912 2913 2914 2915 2915 2917 2918 2919 2920 2920 2921 2922 2922 2923 2924 2924 2925 2925 2925 2925 2925 2924 2924 2924 2924 2925
2911 2911 2910 2909 2908 2906 2905 2904 2903 2901 2900 2899 2897 2896 2895 2893 2892 2890 2889 2888 2887 2887 2887 2887 2887 2886 2885 2885 2885 2884 2884 2883 2883 2883 2884 2885 2885 2884 2882 2880 2880 2880 2881 2883 2884 2886 2889 2891 2892 2893 2894 2895 2897 2898 2900 2901 2902 2904 2905 2906 2907 2908 2909 2910 2912 2913 2913 2914 2915 2916 2916 2917 2918 2918 2919 2919 2920 2920 2920 2919 2919 2919 2919 2919 2920
2903 2903 2902 2902 2900 2899 2898 2897 2895 2894 2892 2891 2890 2888 2887 2886 2885 2883 2882 2880 2879 2878 2878 2879 2879 2878 2878 2879 2878 2877 2877 2877 2876 2876 2876 2876 2875 2874 2873 2873 2873 2874 2875 2876 2878 2879 2882 2884 2885 2887 2888 2889 2890 2892 2894 2895 2895 2897 2898 2899 2900 2902 2903 2904 2906 2907 2908 2909 2910 2910 2911 2912 2912 2913 2914 2914 2914 2914 2914 2914 2914 2913 2914 2914 2914
2895 2895 2894 2893 2892 2891 2890 2889 2887 2886 2884 2883 2882 2880 2879 2878 2877 2875 2874 2873 2871 2870 2869 2870 2870 2870 2870 2871 2870 2869 2869 2869 2868 2868 2868 2867 2867 2867 2867 2867 2867 2867 2868 2869 2870 2872 2875 2877 2879 2880 2881 2882 2884 2885 2887 2888 2889 2890 2891 2893 2894 2895 2896 2898 2899 2901 2902 2903 2904 2905 2906 2907 2907 2908 2908 2908 2908 2909 2909 2908 2908 2908 2908 2909 2909
2886 2886 2885 2883 2882 2882 2881 2880 2879 2878 2876 2875 2874 2872 2871 2870 2869 2867 2866 2865 2864 2862 2861 2861 2861 2862 2862 2863 2862 2860 2859 2859 2859 2860 2860 2860 2860 2860 2860 2860 2860 2860 2862 2862 2864 2866 2869 2870 2871 2873 2874 2874 2876 2879 2880 2881 2882 2884 2885 2886 2887 2888 2890 2891 2893 2895 2896 2897 2899 2900 2901 2902 2902 2903 2903 2903 2903 2903 2903 2903 2902 2902 2903 2903 2903
2877 2876 2876 2874 2873 2872 2872 2871 2870 2869 2868 2867 2865 2864 2863 2862 2860 2859 2858 2857 2856 2855 2853 2852 2852 2853 2854 2854 2854 2852 2851 2850 2851 2851 2851 2852 2852 2852 2852 2853 2853 2854 2855 2856 2857 2860 2862 2863 2864 2866 2866 2867 2869 2871 2873 2874 2876 2877 2878 2879 2881 2882 2884 2886 2887 2889 2890 2892 2893 2894 2895 2896 2897 2897 2897 2897 2897 2897 2897 2896 2896 2896 2897 2897 2898
2867 2866 2866 2865 2864 2863 2862 2862 2861 2860 2859 2858 2857 2855 2854 2853 2852 2851 2849 2848 2847 2847 2845 2844 2844 2845 2845 2845 2845 2844 2843 2842 2842 2842 2842 2842 2843 2843 2844 2844 2845 2846 2847 2848 2850 2853 2855 2856 2857 2859 2859 2860 2862 2863 2865 2867 2869 2871 2872 2874 2875 2876 2877 2879 2881 2882 2884 2886 2887 2889 2890 2890 2891 2891 2891 2891 2891 2891 2891 2890 2890 2890 2891 2891 2892
2857 2857 2856 2856 2854 2853 2853 2852 2852 2851 2850 2849 2848 2847 2846 2844 2843 2842 2841 2840 2839 2838 2837 2836 2836 2836 2836 2837 2837 2836 2835 2835 2834 2833 2833 2833 2834 2834 2835 2835 2836 2838 2839 2840 2842 2845 2847 2848 2850 2851 2852 2853 2854 2856 2858 2860 2862 2864 2866 2867 2869 2870 2871 2873 2874 2876 2878 2880 2881 2882 2883 2884 2884 2885 2885 2885 2885 2885 2885 2884 2884 2885 2885 2886 2886
2847 2847 2847 2846 2845 2844 2843 2843 2842 2842 2841 2840 2839 2838 2837 2836 2835 2833 2832 2831 2830 2829 2828 2828 2827 2827 2827 2828 2828 2827 2827 2827 2826 2824 2824 2824 2825 2825 2826 2826 2827 2828 2829 2831 2833 2836 2838 2839 2841 2842 2844 2845 2847 2849 2851 2854 2856 2858 2859 2861 2862 2863 2865 2866 2868 2870 2872 2874 2875 2876 2877 2877 2878 2878 2879 2879 2879 2879 2878 2878 2878 2879 2879 2880 2881
2836 2836 2836 2836 2835 2834 2833 2833 2833 2832 2831 2831 2830 2829 2828 2827 2826 2825 2824 2823 2822 2821 2820 2819 2819 2818 2818 2819 2819 2819 2819 2819 2818 2817 2816 2816 2816 2816 2817 2817 2818 2819 2820 2822 2824 2827 2829 2831 2832 2834 2835 2838 2840 2842 2844 2846 2848 2850 2852 2854 2855 2856 2858 2860 2862 2864 2866 2867 2868 2869 2870 2871 2871 2872 2872 2872 2872 2872 2872 2872 2872 2873 2874 2874 2875
2825 2825 2825 2824 2824 2824 2823 2823 2822 2822 2822 2821 2820 2820 2819 2818 2817 2816 2815 2814 2813 2813 2811 2811 2811 2810 2809 2810 2810 2810 2810 2810 2809 2808 2808 2807 2807 2807 2808 2808 2809 2810 2812 2814 2816 2818 2820 2822 2824 2825 2827 2829 2832 2834 2836 2838 2840 2842 2844 2846 2848 2850 2852 2854 2856 2857 2858 2859 2861 2862 2863 2864 2864 2865 2865 2865 2865 2866 2866 2866 2867 2867 2868 2868 2868
2813 2813 2813 2812 2812 2812 2812 2812 2812 2812 2812 2811 2811 2811 2810 2809 2808 2807 2806 2805 2805 2804 2803 2803 2802 2801 2801 2801 2801 2801 2801 2800 2799 2799 2799 2798 2798 2799 2799 2800 2801 2802 2804 2805 2807 2808 2810 2813 2814 2816 2819 2821 2824 2826 2828 2830 2832 2835 2837 2839 2842 2844 2845 2847 2848 2849 2850 2852 2854 2855 2856 2857 2858 2858 2858 2859 2859 2859 2859 2860 2860 2861 2861 2862 2862
2800 2800 2800 2801 2801 2801 2801 2802 2802 2802 2801 2801 2801 2801 2801 2800 2799 2798 2797 2796 2796 2795 2794 2794 2793 2793 2793 2792 2792 2792 2792 2791 2791 2790 2789 2789 2789 2790 2791 2792 2793 2794 2796 2798 2799 2800 2801 2803 2805 2808 2810 2813 2816 2818 2820 2823 2825 2827 2830 2833 2835 2836 2837 2838 2840 2842 2844 2846 2847 2848 2849 2850 2851 2851 2852 2852 2852 2852 2853 2853 2854 2854 2855 2855 2856
2788 2788 2789 2789 2789 2790 2791 2791 2791 2791 2792 2792 2792 2792 2791 2790 2789 2788 2788 2787 2786 2786 2785 2785 2784 2784 2784 2783 2783 2783 2783 2783 2782 2781 2780 2780 2781 2781 2782 2783 2785 2786 2788 2790 2791 2792 2793 2795 2797 2799 2802 2805 2808 2810 2812 2815 2817 2820 2823 2826 2828 2829 2830 2832 2834 2836 2838 2839 2841 2842 2843 2844 2844 2844 2845 2845 2846 2846 2847 2847 2848 2848 2849 2850 2850
2777 2777 2777 2778 2778 2779 2780 2781 2781 2781 2782 2782 2782 2782 2782 2781 2780 2779 2778 2777 2777 2777 2776 2776 2776 2776 2775 2775 2774 2774 2774 2774 2774 2773 2772 2772 2772 2773 2774 2775 2776 2778 2780 2782 2783 2785 2786 2787 2789 2791 2794 2797 2800 2802 2804 2807 2810 2813 2816 2818 2820 2821 2823 2825 2827 2829 2831 2833 2834 2835 2836 2836 2837 2838 2838 2839 2840 2840 2841 2842 2842 2843 2844 2844 2845
2766 2766 2767 2767 2768 2769 2770 2770 2771 2771 2772 2772 2772 2773 2773 2772 2772 2771 2769 2768 2768 2767 2767 2767 2767 2767 2766 2766 2766 2765 2765 2765 2766 2766 2765 2764 2763 2764 2765 2766 2767 2769 2771 2773 2775 2777 2778 2780 2782 2784 2787 2790 2793 2795 2797 2800 2803 2805 2808 2810 2812 2814 2816 2819 2821 2823 2825 2826 2827 2828 2829 2830 2831 2832 2833 2833 2834 2835 2836 2836 2837 2838 2839 2839 2840
2756 2757 2757 2758 2758 2759 2760 2760 2761 2762 2762 2762 2763 2763 2763 2763 2763 2762 2761 2760 2760 2759 2759 2758 2758 2758 2758 2758 2758 2758 2757 2757 2757 2757 2757 2756 2755 2755 2755 2756 2758 2761 2762 2764 2766 2768 2770 2772 2775 2778 2781 2783 2786 2788 2790 2793 2796 2798 2800 2803 2805 2808 2811 2813 2815 2817 2818 2820 2821 2822 2823 2824 2825 2826 2827 2828 2829 2830 2831 2832 2833 2833 2834 2835 2835